Time,TemperatureF,DewpointF,PressureIn,WindDirection,WindDirectionDegrees,WindSpeedMPH,WindSpeedGustMPH,Humidity,HourlyPrecipIn,Conditions,Clouds,dailyrainin,SoftwareType,DateUTC
2013-02-11 00:01:00,17.0,13.0,-100.00,WNW,290,1.0,6.0,84,-99.99,,,0.00,,2013-02-11 07:01:00,
2013-02-11 00:11:00,16.0,13.0,-100.00,North,-999,0.0,0.0,85,-99.99,,,0.00,,2013-02-11 07:11:00,
2013-02-11 00:21:00,16.0,13.0,-100.00,North,-999,0.0,0.0,85,-99.99,,,0.00,,2013-02-11 07:21:00,
2013-02-11 00:32:00,16.0,13.0,-100.00,North,-999,0.0,0.0,85,-99.99,,,0.00,,2013-02-11 07:32:00,
2013-02-11 00:41:00,16.0,13.0,-100.00,North,-999,0.0,0.0,85,-99.99,,,0.00,,2013-02-11 07:41:00,
2013-02-11 00:51:00,17.0,13.0,-100.00,WSW,240,3.0,6.0,85,-99.99,,,0.00,,2013-02-11 07:51:00,
2013-02-11 01:01:00,17.0,13.0,-100.00,WSW,240,3.0,6.0,85,-99.99,,,0.00,,2013-02-11 08:01:00,
2013-02-11 01:31:00,16.0,13.0,-100.00,North,-999,0.0,0.0,85,-99.99,,,0.00,,2013-02-11 08:31:00,
2013-02-11 01:42:00,16.0,13.0,-100.00,North,-999,0.0,0.0,85,-99.99,,,0.00,,2013-02-11 08:42:00,
2013-02-11 01:52:00,16.0,12.0,-100.00,WSW,240,1.0,12.0,84,-99.99,,,0.00,,2013-02-11 08:52:00,
2013-02-11 02:01:00,16.0,12.0,-100.00,WSW,240,1.0,12.0,84,-99.99,,,0.00,,2013-02-11 09:01:00,
2013-02-11 02:12:00,14.0,10.0,-100.00,SW,235,12.0,17.0,82,-99.99,,,0.00,,2013-02-11 09:12:00,
2013-02-11 02:21:00,14.0,10.0,-100.00,SW,235,12.0,17.0,82,-99.99,,,0.00,,2013-02-11 09:21:00,
2013-02-11 02:31:00,14.0,10.0,-100.00,SW,235,12.0,17.0,82,-99.99,,,0.00,,2013-02-11 09:31:00,
2013-02-11 02:41:00,14.0,10.0,-100.00,SW,235,12.0,17.0,82,-99.99,,,0.00,,2013-02-11 09:41:00,
2013-02-11 02:51:00,13.0,8.0,-100.00,WSW,240,13.0,21.0,80,-99.99,,,0.00,,2013-02-11 09:51:00,
2013-02-11 03:01:00,13.0,8.0,-100.00,WSW,240,13.0,21.0,80,-99.99,,,0.00,,2013-02-11 10:01:00,
2013-02-11 03:11:00,12.0,7.0,-100.00,WSW,245,11.0,16.0,80,-99.99,,,0.00,,2013-02-11 10:11:00,
2013-02-11 03:21:00,12.0,7.0,-100.00,WSW,245,11.0,16.0,80,-99.99,,,0.00,,2013-02-11 10:21:00,
2013-02-11 03:31:00,12.0,7.0,-100.00,WSW,245,11.0,16.0,80,-99.99,,,0.00,,2013-02-11 10:31:00,
2013-02-11 03:41:00,12.0,7.0,-100.00,WSW,245,11.0,16.0,80,-99.99,,,0.00,,2013-02-11 10:41:00,
2013-02-11 03:51:00,12.0,7.0,-100.00,WSW,240,12.0,16.0,79,-99.99,,,0.00,,2013-02-11 10:51:00,
2013-02-11 04:01:00,12.0,7.0,-100.00,WSW,240,12.0,16.0,79,-99.99,,,0.00,,2013-02-11 11:01:00,
2013-02-11 04:11:00,12.0,6.0,-100.00,WSW,240,13.0,18.0,78,-99.99,,,0.00,,2013-02-11 11:11:00,
2013-02-11 04:22:00,12.0,6.0,-100.00,WSW,240,13.0,18.0,78,-99.99,,,0.00,,2013-02-11 11:22:00,
2013-02-11 04:32:00,12.0,6.0,-100.00,WSW,240,13.0,18.0,78,-99.99,,,0.00,,2013-02-11 11:32:00,
2013-02-11 04:42:00,12.0,6.0,-100.00,WSW,240,13.0,18.0,78,-99.99,,,0.00,,2013-02-11 11:42:00,
2013-02-11 04:52:00,11.0,6.0,-100.00,WSW,240,13.0,22.0,78,-99.99,,,0.00,,2013-02-11 11:52:00,
2013-02-11 05:03:00,11.0,6.0,-100.00,WSW,240,13.0,22.0,78,-99.99,,,0.00,,2013-02-11 12:03:00,
2013-02-11 05:12:00,11.0,5.0,-100.00,WSW,240,17.0,24.0,78,-99.99,,,0.00,,2013-02-11 12:12:00,
2013-02-11 05:22:00,11.0,5.0,-100.00,WSW,240,17.0,24.0,78,-99.99,,,0.00,,2013-02-11 12:22:00,
2013-02-11 05:31:00,11.0,5.0,-100.00,WSW,240,17.0,24.0,78,-99.99,,,0.00,,2013-02-11 12:31:00,
2013-02-11 05:42:00,11.0,5.0,-100.00,WSW,240,17.0,24.0,78,-99.99,,,0.00,,2013-02-11 12:42:00,
2013-02-11 05:52:00,13.0,6.0,-100.00,WSW,240,23.0,29.0,74,-99.99,,,0.00,,2013-02-11 12:52:00,
2013-02-11 06:01:00,13.0,6.0,-100.00,WSW,240,23.0,29.0,74,-99.99,,,0.00,,2013-02-11 13:01:00,
2013-02-11 06:11:00,13.0,6.0,-100.00,WSW,240,23.0,29.0,74,-99.99,,,0.00,,2013-02-11 13:11:00,
2013-02-11 06:51:00,12.0,5.0,-100.00,WSW,245,20.0,26.0,73,-99.99,,,0.00,,2013-02-11 13:51:00,
2013-02-11 07:01:00,12.0,5.0,-100.00,WSW,245,20.0,26.0,73,-99.99,,,0.00,,2013-02-11 14:01:00,
2013-02-11 07:32:00,12.0,5.0,-100.00,WSW,245,15.0,22.0,73,-99.99,,,0.00,,2013-02-11 14:32:00,
2013-02-11 07:42:00,12.0,5.0,-100.00,WSW,245,15.0,22.0,73,-99.99,,,0.00,,2013-02-11 14:42:00,
2013-02-11 07:52:00,13.0,6.0,-100.00,WSW,240,16.0,21.0,74,-99.99,,,0.00,,2013-02-11 14:52:00,
2013-02-11 08:01:00,13.0,6.0,-100.00,WSW,240,16.0,21.0,74,-99.99,,,0.00,,2013-02-11 15:01:00,
2013-02-11 08:11:00,13.0,6.0,-100.00,WSW,245,14.0,21.0,72,-99.99,,,0.00,,2013-02-11 15:11:00,
2013-02-11 08:22:00,13.0,6.0,-100.00,WSW,245,14.0,21.0,72,-99.99,,,0.00,,2013-02-11 15:22:00,
2013-02-11 08:32:00,13.0,6.0,-100.00,WSW,245,14.0,21.0,72,-99.99,,,0.00,,2013-02-11 15:32:00,
2013-02-11 08:42:00,13.0,6.0,-100.00,WSW,245,14.0,21.0,72,-99.99,,,0.00,,2013-02-11 15:42:00,
2013-02-11 08:52:00,15.0,7.0,-100.00,SW,235,20.0,27.0,68,-99.99,,,0.00,,2013-02-11 15:52:00,
2013-02-11 09:01:00,15.0,7.0,-100.00,SW,235,20.0,27.0,68,-99.99,,,0.00,,2013-02-11 16:01:00,
2013-02-11 09:11:00,18.0,8.0,-100.00,WSW,255,14.0,22.0,65,-99.99,,,0.00,,2013-02-11 16:11:00,
2013-02-11 09:21:00,18.0,8.0,-100.00,WSW,255,14.0,22.0,65,-99.99,,,0.00,,2013-02-11 16:21:00,
2013-02-11 09:32:00,18.0,8.0,-100.00,WSW,255,14.0,22.0,65,-99.99,,,0.00,,2013-02-11 16:32:00,
2013-02-11 09:42:00,18.0,8.0,-100.00,WSW,255,14.0,22.0,65,-99.99,,,0.00,,2013-02-11 16:42:00,
2013-02-11 09:52:00,20.0,8.0,-100.00,WSW,255,19.0,24.0,59,-99.99,,,0.00,,2013-02-11 16:52:00,
2013-02-11 10:01:00,20.0,8.0,-100.00,WSW,255,19.0,24.0,59,-99.99,,,0.00,,2013-02-11 17:01:00,
2013-02-11 10:11:00,23.0,9.0,-100.00,West,265,14.0,23.0,54,-99.99,,,0.00,,2013-02-11 17:11:00,
2013-02-11 10:21:00,23.0,9.0,-100.00,West,265,14.0,23.0,54,-99.99,,,0.00,,2013-02-11 17:21:00,
2013-02-11 10:32:00,23.0,9.0,-100.00,West,265,14.0,23.0,54,-99.99,,,0.00,,2013-02-11 17:32:00,
2013-02-11 10:41:00,23.0,9.0,-100.00,West,265,14.0,23.0,54,-99.99,,,0.00,,2013-02-11 17:41:00,
2013-02-11 11:11:00,27.0,9.0,-100.00,West,265,14.0,22.0,45,-99.99,,,0.00,,2013-02-11 18:11:00,
2013-02-11 11:21:00,27.0,9.0,-100.00,West,265,14.0,22.0,45,-99.99,,,0.00,,2013-02-11 18:21:00,
2013-02-11 11:32:00,27.0,9.0,-100.00,West,265,14.0,22.0,45,-99.99,,,0.00,,2013-02-11 18:32:00,
2013-02-11 11:42:00,27.0,9.0,-100.00,West,265,14.0,22.0,45,-99.99,,,0.00,,2013-02-11 18:42:00,
2013-02-11 11:52:00,28.0,9.0,-100.00,WSW,255,15.0,29.0,44,-99.99,,,0.00,,2013-02-11 18:52:00,
2013-02-11 12:01:00,28.0,9.0,-100.00,WSW,255,15.0,29.0,44,-99.99,,,0.00,,2013-02-11 19:01:00,
2013-02-11 12:11:00,29.0,10.0,-100.00,West,270,12.0,29.0,44,-99.99,,,0.00,,2013-02-11 19:11:00,
2013-02-11 12:21:00,29.0,10.0,-100.00,West,270,12.0,29.0,44,-99.99,,,0.00,,2013-02-11 19:21:00,
2013-02-11 12:31:00,29.0,10.0,-100.00,West,270,12.0,29.0,44,-99.99,,,0.00,,2013-02-11 19:31:00,
2013-02-11 12:41:00,29.0,10.0,-100.00,West,270,12.0,29.0,44,-99.99,,,0.00,,2013-02-11 19:41:00,
2013-02-11 13:11:00,32.0,11.0,-100.00,West,265,17.0,25.0,41,-99.99,,,0.00,,2013-02-11 20:11:00,
2013-02-11 13:21:00,32.0,11.0,-100.00,West,265,17.0,25.0,41,-99.99,,,0.00,,2013-02-11 20:21:00,
2013-02-11 13:31:00,32.0,11.0,-100.00,West,265,17.0,25.0,41,-99.99,,,0.00,,2013-02-11 20:31:00,
2013-02-11 13:41:00,32.0,11.0,-100.00,West,265,17.0,25.0,41,-99.99,,,0.00,,2013-02-11 20:41:00,
2013-02-11 13:52:00,34.0,11.0,-100.00,WSW,250,14.0,27.0,39,-99.99,,,0.00,,2013-02-11 20:52:00,
2013-02-11 14:02:00,34.0,11.0,-100.00,WSW,250,14.0,27.0,39,-99.99,,,0.00,,2013-02-11 21:02:00,
2013-02-11 14:11:00,35.0,10.0,-100.00,West,265,19.0,30.0,35,-99.99,,,0.00,,2013-02-11 21:11:00,
2013-02-11 14:21:00,35.0,10.0,-100.00,West,265,19.0,30.0,35,-99.99,,,0.00,,2013-02-11 21:21:00,
2013-02-11 14:31:00,35.0,10.0,-100.00,West,265,19.0,30.0,35,-99.99,,,0.00,,2013-02-11 21:31:00,
2013-02-11 14:41:00,35.0,10.0,-100.00,West,265,19.0,30.0,35,-99.99,,,0.00,,2013-02-11 21:41:00,
2013-02-11 14:51:00,34.0,9.0,-100.00,WSW,255,17.0,29.0,35,-99.99,,,0.00,,2013-02-11 21:51:00,
2013-02-11 15:01:00,34.0,9.0,-100.00,WSW,255,17.0,29.0,35,-99.99,,,0.00,,2013-02-11 22:01:00,
2013-02-11 15:11:00,33.0,8.0,-100.00,West,260,22.0,31.0,35,-99.99,,,0.00,,2013-02-11 22:11:00,
2013-02-11 15:21:00,33.0,8.0,-100.00,West,260,22.0,31.0,35,-99.99,,,0.00,,2013-02-11 22:21:00,
2013-02-11 15:31:00,33.0,8.0,-100.00,West,260,22.0,31.0,35,-99.99,,,0.00,,2013-02-11 22:31:00,
2013-02-11 15:41:00,33.0,8.0,-100.00,West,260,22.0,31.0,35,-99.99,,,0.00,,2013-02-11 22:41:00,
2013-02-11 16:11:00,33.0,8.0,-100.00,West,265,17.0,26.0,35,-99.99,,,0.00,,2013-02-11 23:11:00,
2013-02-11 16:21:00,33.0,8.0,-100.00,West,265,17.0,26.0,35,-99.99,,,0.00,,2013-02-11 23:21:00,
2013-02-11 16:31:00,33.0,8.0,-100.00,West,265,17.0,26.0,35,-99.99,,,0.00,,2013-02-11 23:31:00,
2013-02-11 16:41:00,33.0,8.0,-100.00,West,265,17.0,26.0,35,-99.99,,,0.00,,2013-02-11 23:41:00,
2013-02-11 16:52:00,32.0,8.0,-100.00,West,265,15.0,29.0,36,-99.99,,,0.00,,2013-02-11 23:52:00,
2013-02-11 17:01:00,32.0,8.0,-100.00,West,265,15.0,29.0,36,-99.99,,,0.00,,2013-02-12 00:01:00,
2013-02-11 17:11:00,31.0,8.0,-100.00,West,260,19.0,29.0,37,-99.99,,,0.00,,2013-02-12 00:11:00,
2013-02-11 17:21:00,31.0,8.0,-100.00,West,260,19.0,29.0,37,-99.99,,,0.00,,2013-02-12 00:21:00,
2013-02-11 17:32:00,31.0,8.0,-100.00,West,260,19.0,29.0,37,-99.99,,,0.00,,2013-02-12 00:32:00,
2013-02-11 17:42:00,31.0,8.0,-100.00,West,260,19.0,29.0,37,-99.99,,,0.00,,2013-02-12 00:42:00,
2013-02-11 17:52:00,30.0,8.0,-100.00,West,260,17.0,28.0,38,-99.99,,,0.00,,2013-02-12 00:52:00,
2013-02-11 18:01:00,30.0,8.0,-100.00,West,260,17.0,28.0,38,-99.99,,,0.00,,2013-02-12 01:01:00,
2013-02-11 18:11:00,29.0,8.0,-100.00,West,270,14.0,25.0,40,-99.99,,,0.00,,2013-02-12 01:11:00,
2013-02-11 18:21:00,29.0,8.0,-100.00,West,270,14.0,25.0,40,-99.99,,,0.00,,2013-02-12 01:21:00,
2013-02-11 18:31:00,29.0,8.0,-100.00,West,270,14.0,25.0,40,-99.99,,,0.00,,2013-02-12 01:31:00,
2013-02-11 18:41:00,29.0,8.0,-100.00,West,270,14.0,25.0,40,-99.99,,,0.00,,2013-02-12 01:41:00,
2013-02-11 18:51:00,28.0,7.0,-100.00,West,265,18.0,26.0,41,-99.99,,,0.00,,2013-02-12 01:51:00,
2013-02-11 19:01:00,28.0,7.0,-100.00,West,265,18.0,26.0,41,-99.99,,,0.00,,2013-02-12 02:01:00,
2013-02-11 19:11:00,27.0,7.0,-100.00,West,265,16.0,24.0,42,-99.99,,,0.00,,2013-02-12 02:11:00,
2013-02-11 19:21:00,27.0,7.0,-100.00,West,265,16.0,24.0,42,-99.99,,,0.00,,2013-02-12 02:21:00,
2013-02-11 19:31:00,27.0,7.0,-100.00,West,265,16.0,24.0,42,-99.99,,,0.00,,2013-02-12 02:31:00,
2013-02-11 19:41:00,27.0,7.0,-100.00,West,265,16.0,24.0,42,-99.99,,,0.00,,2013-02-12 02:41:00,
2013-02-11 19:52:00,27.0,7.0,-100.00,West,260,17.0,28.0,42,-99.99,,,0.00,,2013-02-12 02:52:00,
2013-02-11 20:02:00,27.0,7.0,-100.00,West,260,17.0,28.0,42,-99.99,,,0.00,,2013-02-12 03:02:00,
2013-02-11 20:11:00,26.0,6.0,-100.00,West,260,18.0,29.0,42,-99.99,,,0.00,,2013-02-12 03:11:00,
2013-02-11 20:21:00,26.0,6.0,-100.00,West,260,18.0,29.0,42,-99.99,,,0.00,,2013-02-12 03:21:00,
2013-02-11 20:31:00,26.0,6.0,-100.00,West,260,18.0,29.0,42,-99.99,,,0.00,,2013-02-12 03:31:00,
2013-02-11 20:41:00,26.0,6.0,-100.00,West,260,18.0,29.0,42,-99.99,,,0.00,,2013-02-12 03:41:00,
2013-02-11 20:51:00,26.0,6.0,-100.00,West,275,22.0,28.0,41,-99.99,,,0.00,,2013-02-12 03:51:00,
2013-02-11 21:01:00,26.0,6.0,-100.00,West,275,22.0,28.0,41,-99.99,,,0.00,,2013-02-12 04:01:00,
2013-02-11 21:11:00,26.0,5.0,-100.00,WSW,255,19.0,29.0,41,-99.99,,,0.00,,2013-02-12 04:11:00,
2013-02-11 21:21:00,26.0,5.0,-100.00,WSW,255,19.0,29.0,41,-99.99,,,0.00,,2013-02-12 04:21:00,
2013-02-11 21:31:00,26.0,5.0,-100.00,WSW,255,19.0,29.0,41,-99.99,,,0.00,,2013-02-12 04:31:00,
2013-02-11 21:41:00,26.0,5.0,-100.00,WSW,255,19.0,29.0,41,-99.99,,,0.00,,2013-02-12 04:41:00,
2013-02-11 21:51:00,26.0,5.0,-100.00,West,260,17.0,26.0,41,-99.99,,,0.00,,2013-02-12 04:51:00,
2013-02-11 22:01:00,26.0,5.0,-100.00,West,260,17.0,26.0,41,-99.99,,,0.00,,2013-02-12 05:01:00,
2013-02-11 22:11:00,26.0,5.0,-100.00,West,265,18.0,24.0,41,-99.99,,,0.00,,2013-02-12 05:11:00,
2013-02-11 22:21:00,26.0,5.0,-100.00,West,265,18.0,24.0,41,-99.99,,,0.00,,2013-02-12 05:21:00,
2013-02-11 22:31:00,26.0,5.0,-100.00,West,265,18.0,24.0,41,-99.99,,,0.00,,2013-02-12 05:31:00,
2013-02-11 22:41:00,26.0,5.0,-100.00,West,265,18.0,24.0,41,-99.99,,,0.00,,2013-02-12 05:41:00,
2013-02-11 22:52:00,26.0,5.0,-100.00,West,260,20.0,26.0,41,-99.99,,,0.00,,2013-02-12 05:52:00,
2013-02-11 23:01:00,26.0,5.0,-100.00,West,260,20.0,26.0,41,-99.99,,,0.00,,2013-02-12 06:01:00,
2013-02-11 23:12:00,25.0,5.0,-100.00,West,260,17.0,24.0,41,-99.99,,,0.00,,2013-02-12 06:12:00,
2013-02-11 23:21:00,25.0,5.0,-100.00,West,260,17.0,24.0,41,-99.99,,,0.00,,2013-02-12 06:21:00,
2013-02-11 23:31:00,25.0,5.0,-100.00,West,260,17.0,24.0,41,-99.99,,,0.00,,2013-02-12 06:31:00,
2013-02-11 23:42:00,25.0,5.0,-100.00,West,260,17.0,24.0,41,-99.99,,,0.00,,2013-02-12 06:42:00,
2013-02-11 23:51:00,25.0,5.0,-100.00,West,265,11.0,22.0,42,-99.99,,,0.00,,2013-02-12 06:51:00,